KE7TOP-15 Weather Reports


Display with metric or nautical units.
time (UTC)temp
F
wind
direction
speed
MPH
gust
MPH
rain 1hr
in
rain 24hr
in
rain mn
in
humidity
%
barometer
mb
20260505203016 61 146 3.0 6.0 0.00 0.43 0.00 54 1014.2
20260505202024 60 138 3.0 7.0 0.00 0.43 0.00 56 1014.4
20260505201103 60 152 3.0 6.0 0.00 0.43 0.00 56 1014.4
20260505200022 60 172 3.0 8.0 0.00 0.43 0.00 56 1014.4
20260505195021 60 153 4.0 10.0 0.00 0.43 0.00 57 1014.4
20260505194039 61 149 4.0 13.0 0.00 0.43 0.00 56 1014.4
20260505193018 60 147 5.0 11.0 0.00 0.43 0.00 56 1014.4
20260505192016 60 137 4.0 9.0 0.00 0.43 0.00 58 1014.5
20260505191024 58 4 3.0 9.0 0.00 0.43 0.00 59 1014.5
20260505190022 57 145 4.0 7.0 0.00 0.43 0.00 60 1014.4
20260505185100 57 130 4.0 7.0 0.00 0.43 0.00 63 1014.6
20260505184019 57 32 4.0 10.0 0.00 0.43 0.00 62 1014.4
20260505183018 57 89 4.0 9.0 0.00 0.43 0.00 63 1014.4
20260505182016 56 134 5.0 9.0 0.00 0.43 0.00 64 1014.5
20260505181046 55 147 6.0 11.0 0.00 0.43 0.00 64 1014.4
20260505180023 56 155 6.0 11.0 0.00 0.43 0.00 65 1014.3
20260505175019 55 130 4.0 9.0 0.00 0.43 0.00 66 1014.1
20260505174038 54 134 5.0 10.0 0.00 0.43 0.00 67 1014.1
20260505173016 53 289 4.0 9.0 0.00 0.43 0.00 71 1014.0
20260505172024 51 340 3.0 8.0 0.00 0.43 0.00 71 1014.0
20260505171024 51 306 3.0 8.0 0.00 0.43 0.00 74 1014.1
20260505170022 50 303 4.0 14.0 0.00 0.43 0.00 74 1014.2
20260505165021 49 325 3.0 6.0 0.00 0.43 0.00 76 1014.0
20260505164020 49 293 5.0 13.0 0.00 0.43 0.00 77 1014.0
20260505163018 49 327 3.0 8.0 0.00 0.43 0.00 79 1014.1
20260505162017 48 330 2.0 6.0 0.00 0.43 0.00 79 1014.0
20260505161024 48 104 2.0 7.0 0.00 0.43 0.00 80 1014.0
20260505153017 46 136 2.0 5.0 0.00 0.43 0.00 84 1013.7
20260505152016 46 144 3.0 7.0 0.00 0.43 0.00 85 1013.6
20260505151015 45 141 2.0 6.0 0.00 0.43 0.00 87 1013.3
20260505125024 44 148 2.0 4.0 0.00 0.43 0.00 86 1012.1
20260505124023 44 145 5.0 9.0 0.00 0.43 0.00 86 1012.1
20260505123021 44 144 3.0 6.0 0.00 0.43 0.00 86 1012.0
20260505122019 44 131 4.0 11.0 0.00 0.43 0.00 87 1012.0
20260505121018 44 144 3.0 6.0 0.00 0.43 0.00 87 1012.0
20260505120037 44 147 3.0 6.0 0.00 0.43 0.00 87 1011.9
20260505115015 44 142 3.0 6.0 0.00 0.43 0.00 87 1011.8
20260505114024 44 142 3.0 6.0 0.00 0.43 0.00 87 1011.7
20260505113023 44 95 1.0 2.0 0.00 0.43 0.00 85 1011.8
20260505112022 44 134 2.0 4.0 0.00 0.43 0.00 84 1011.7
20260505111019 44 114 1.0 4.0 0.00 0.43 0.00 85 1011.9
20260505101524 44 299 2.0 7.0 0.00 0.43 0.00 84 1012.1
20260505100523 44 296 1.0 5.0 0.00 0.43 0.00 84 1012.1
20260505095520 44 274 2.0 4.0 0.00 0.43 0.00 85 1012.0
20260505094519 43 110 2.0 5.0 0.00 0.43 0.00 87 1012.0
20260505093517 44 144 3.0 7.0 0.00 0.43 0.00 85 1012.1
20260505092516 44 308 2.0 5.0 0.00 0.43 0.00 83 1011.9
20260505091524 44 175 3.0 12.0 0.00 0.43 0.00 83 1012.1
20260505090523 44 149 4.0 8.0 0.00 0.43 0.00 83 1012.4
20260505085521 44 291 3.0 7.0 0.00 0.43 0.00 84 1012.3
20260505084520 44 152 2.0 6.0 0.00 0.43 0.00 85 1012.9
20260505083518 44 138 2.0 6.0 0.00 0.43 0.00 85 1012.9
20260505082517 44 130 2.0 5.0 0.00 0.43 0.00 84 1012.9
20260505081515 43 298 1.0 4.0 0.00 0.43 0.00 85 1012.9
20260505080524 43 132 1.0 3.0 0.00 0.43 0.00 85 1012.8
20260505075542 42 329 1.0 4.0 0.00 0.43 0.00 92 1012.9
20260505074520 42 284 0.0 2.0 0.00 0.43 0.00 92 1013.1
20260505073518 42 21 0.0 2.0 0.00 0.43 0.00 91 1013.3
20260505072516 43 300 1.0 2.0 0.00 0.43 0.00 90 1013.0
20260505071543 43 185 1.0 3.0 0.00 0.43 0.00 87 1012.9
20260505070521 43 143 1.0 3.0 0.00 0.43 0.00 86 1012.4
20260505065520 44 122 1.0 5.0 0.00 0.43 0.43 82 1012.2
20260505064539 44 277 3.0 6.0 0.00 0.43 0.43 81 1012.0
20260505063518 45 289 5.0 15.0 0.00 0.43 0.43 80 1011.7
20260505062516 45 328 4.0 13.0 0.00 0.43 0.43 81 1011.4
20260505061524 45 299 4.0 10.0 0.01 0.43 0.43 81 1011.3
20260505060523 45 291 5.0 13.0 0.01 0.43 0.43 81 1011.7
20260505055520 44 297 5.0 14.0 0.03 0.43 0.43 81 1012.1